Miscellaneous Local Product
Issued by NWS Hastings, NE

Home | Current Version | Previous Version | Text Only | Print | Product List | Glossary Off
Versions: 1 2 3 4 5 6 7 8 9 10 11 12 13 14 15 16 17 18 19 20 21 22 23 24 25 26 27 28 29 30 31 32 33 34 35 36 37 38 39 40 41 42 43 44 45 46 47 48 49 50

000
AXUS43 KGID 080002
MISGRI

GID CWA HOURLY WEATHER ROUNDUP
NATIONAL WEATHER SERVICE HASTINGS NE
600 PM CST WED DEC 07 2016

NOTE: "FAIR" INDICATES FEW OR NO CLOUDS BELOW 12,000 FEET WITH NO
SIGNIFICANT WEATHER AND/OR OBSTRUCTIONS TO VISIBILITY.

...SOUTH CENTRAL NEBRASKA...

CITY           SKY/WX    TMP DP  RH WIND       PRES   REMARKS
GRAND ISLAND   CLEAR     18   3  52 NW10      30.40R WCI   6
HASTINGS       CLEAR     19   3  49 NW10      30.40R WCI   7
KEARNEY        CLEAR     18   0  45 NW8       30.40R WCI   7
ORD            CLEAR     16   0  49 NW14      30.38R WCI   2
YORK           PTCLDY    19   5  53 NW12      30.39R WCI   7
AURORA         CLEAR     18   4  55 NW9       30.39R WCI   6
LEXINGTON      CLEAR     15   3  60 NW8       30.39R WCI   4
HOLDREGE       PTCLDY    16   5  62 NW8       30.39R WCI   6
HEBRON         PTCLDY    20   6  54 NW5       30.41R WCI  14

...NEBRASKA PANHANDLE...

CITY           SKY/WX    TMP DP  RH WIND       PRES   REMARKS
CHADRON        CLEAR      8  -5  55 W16       30.42R WCI -10
ALLIANCE       CLEAR      8  -2  63 NW10      30.35R WCI  -6
SCOTTSBLUFF    CLEAR      7  -3  64 NW10      30.38R WCI  -8
SIDNEY         CLEAR      5  -3  69 NW9       30.34R WCI  -9

...WESTERN AND NORTH CENTRAL NEBRASKA...

CITY           SKY/WX    TMP DP  RH WIND       PRES   REMARKS
VALENTINE      CLEAR     10  -1  61 NW13      30.40R WCI  -5
AINSWORTH      CLEAR     12   2  65 NW12      30.38R WCI  -2
ONEILL         CLEAR     14   3  61 NW16G23   30.38R WCI  -2
BROKEN BOW     CLEAR     17   2  51 NW15      30.37R WCI   2
IMPERIAL       CLEAR     10   3  73 NW6       30.39R WCI   0
NORTH PLATTE   CLEAR     13   5  70 NW8       30.39R WCI   2
MCCOOK         CLOUDY    17  10  74 NW8       30.42R WCI   7

...EASTERN NEBRASKA...

CITY           SKY/WX    TMP DP  RH WIND       PRES   REMARKS
NORFOLK        CLEAR     16   2  54 NW17G25   30.36R WCI   0
SO SIOUX CITY  CLEAR     19   6  57 NW17      30.35R WCI   4
TEKAMAH        CLEAR     19   7  59 NW13      30.37R WCI   6
COLUMBUS       CLEAR     18   1  49 NW14      30.38R WCI   4
ALBION         CLEAR     17   3  55 NW10G16   30.38R WCI   4
OMAHA EPPLEY   PTCLDY    22   7  52 NW13      30.37R WCI  10
OFFUTT AFB     CLEAR     21   7  54 W7        30.37R WCI  13
MILLARD        CLEAR     23   8  51 W7        30.37R WCI  15
LINCOLN        CLEAR     22   6  50 NW8       30.41R WCI  12
NEBRASKA CITY  PTCLDY    20   6  53 NW7       30.38R WCI  11
BEATRICE       CLEAR     18   8  66 NW6       30.40R WCI   9
FALLS CITY     CLEAR     21  10  62 NW8       30.39R WCI  11

...NORTHERN KANSAS...

CITY           SKY/WX    TMP DP  RH WIND       PRES   REMARKS
GOODLAND       CLOUDY    14   8  77 N8        30.36R WCI   3
HILL CITY      CLOUDY    19  12  74 NW10      30.44R WCI   7
NORTON         MOCLDY    14   7  73 W7        30.41R WCI   4
PHILLIPSBURG   CLEAR     16  10  79 W7        30.44R WCI   6
SMITH CENTER   PTCLDY    12   9  85 W7        30.44R WCI   2
BELOIT         CLEAR     19   9  63 W6        30.43R WCI  11
HAYS           CLOUDY    21  14  74 N15       30.43R WCI   8
RUSSELL        MOCLDY    19  14  81 NW7       30.42R WCI  10
CONCORDIA      CLEAR     20  10  65 NW6       30.42R WCI  12
SALINA         CLEAR     22  15  75 NW8       30.44R WCI  12
TOPEKA         PTCLDY    25  15  66 NW6       30.41R WCI  18



USA.gov is the U.S. government's official web portal to all federal, state and local government web resources and services.